Location: Newark
(43.0000°N, 1.6781°W)
Time: 07:02:39
(UTC+00:00)

Vanguard 1 - Pass Details

Date: 04 December 2021
Orbit: 652 x 3830 km, 34.2° (Epoch: 16 January)

Event Time Altitude Azimuth Distance (km) Brightness Sun altitude
Exits shadow 01:03:26 34° 103° (ESE) 4,685 13.3 -65.1°
Drops below altitude 10° 01:11:33 10° 91° (E) 5,860 14.1 -64.1°
Sets 01:15:22 0° 88° (E) 6,547 14.5 -63.6°
